Regional Weather Roundup
Issued by NWS

Home | Current Version | Previous Version | Text Only | Print | Product List | Glossary On
Versions: 1 2 3 4 5 6 7 8 9 10 11 12 13 14 15 16 17 18 19 20 21 22 23 24 25 26 27 28 29 30 31 32 33 34 35 36 37 38 39 40 41 42 43 44 45 46 47 48 49 50
694
ASUS44 KMEG 200910
RWRTN
TENNESSEE HOURLY STATE WEATHER ROUNDUP
NATIONAL WEATHER SERVICE MEMPHIS TN
300 AM CST MON FEB 20 2017

TNZ002-004-019-021-049-052-054-088>092-201000-
WEST TENNESSEE

CITY           SKY/WX    TMP DP  RH WIND       PRES   REMARKS
MEMPHIS INTL   PTCLDY    61  50  67 SE3       30.06F
NWS MEMPHIS      N/A     54 N/A N/A MISG        N/A
JACKSON        CLOUDY    49  47  93 CALM      30.09R
UNION CITY     CLEAR    N/A N/A N/A CALM      30.08R
PARIS          CLEAR     52  48  87 SE6       30.10R
HUNTINGDON     CLEAR     50  48  93 CALM      30.09R
$$

TNZ008-025-027-028-033-062-065-066-201000-
NORTH MIDDLE TENNESSEE

CITY           SKY/WX    TMP DP  RH WIND       PRES   REMARKS
NASHVILLE      CLOUDY    48  46  93 CALM      30.13F
PORTLAND       CLEAR     43  43 100 CALM      30.13F
CLARKSVILLE    CLOUDY    46  44  93 E6        30.12S FOG
SMYRNA         PTCLDY    43  42  97 CALM      30.14F
COOKEVILLE     CLEAR     39  39 100 CALM      30.14S FOG
GALLATIN       FOG       41  41 100 CALM      30.16F VSB 1/2
CROSSVILLE     CLOUDY    42  40  92 CALM      30.16S
$$

TNZ061-075-076-078-094-096-097-201000-
SOUTH MIDDLE TENNESSEE

CITY           SKY/WX    TMP DP  RH WIND       PRES   REMARKS
FAYETTEVILLE   CLEAR     50  48  93 CALM      30.13S
TULLAHOMA      CLEAR     43  43 100 CALM      30.13F
WINCHESTER     CLEAR     39  39 100 E3        30.13F
MCMINNVILLE    CLEAR     43  43 100 CALM      30.14S
COLUMBIA       CLEAR    N/A N/A N/A CALM      30.10F
SHELBYVILLE    CLEAR     48  48 100 E5        30.13F
$$

TNZ017-018-042-046-047-201000-
NORTHEAST TENNESSEE

CITY           SKY/WX    TMP DP  RH WIND       PRES   REMARKS
TRI CITIES     FOG       35  33  92 CALM      30.19F VSB 1
ELIZABETHTON   CLEAR     39  39 100 NE5       30.19F
$$

TNZ012-013-036-069-073-074-201000-
CENTRAL EAST TENNESSEE

CITY           SKY/WX    TMP DP  RH WIND       PRES   REMARKS
KNOXVILLE      CLOUDY    41  38  89 E3        30.15F
OAK RIDGE      PTCLDY    42  39  89 CALM      30.18S
GATLINBURG     CLEAR     36  34  93 CALM      30.16F
MORRISTOWN     CLEAR     45  43  93 E5        30.16S
JACKSBORO      FOG       36  36 100 CALM      30.20S VSB 1/4
$$

TNZ083-085-099-201000-
SOUTHEAST TENNESSEE

CITY           SKY/WX    TMP DP  RH WIND       PRES   REMARKS
CHATTANOOGA    PTCLDY    45  43  93 CALM      30.14F
$$

SKY/WX REPORTED AS FAIR MEANS FEW OR NO CLOUDS BELOW
12 THOUSAND FEET.





USA.gov is the U.S. government's official web portal to all federal, state and local government web resources and services.